Valentine, NE

11:57 AM CST on December 05, 2019 (GMT -0600)
Miller Field

Weather History for KVTN - October, 2019

Change the Weather History Date:

Sunday, October 13, 2019

  Actual Average Record
Temperature  
Mean Temperature 38 °F 50 °F  
Max Temperature 57 °F 64 °F 93 °F (1958)
Min Temperature 17 °F 35 °F 12 °F (1986)
Degree Days  
Heating Degree Days 28 16  
Month to date heating degree days 255 172  
Since 1 July heating degree days 308 357  
Cooling Degree Days 0 0  
Month to date cooling degree days 0 1  
Year to date cooling degree days 930 818  
Moisture  
Dew Point 19 °F    
Average Humidity 55    
Maximum Humidity 84    
Minimum Humidity 17    
Precipitation  
Precipitation 0.00 in 0.04 in 0.98 in (2007)
Month to date precipitation 0.65 0.61  
Year to date precipitation 27.55 18.36  
Snow  
Snow 0.00 in 0.00 in T in (2018)
Month to date snowfall 1.9 0.4  
Since 1 July snowfall 1.9 1.1  
Since 1 September snowfall 1.9 1.1  
Snow Depth 0.00 in    
Sea Level Pressure  
Sea Level Pressure 30.00 in    
Wind  
Wind Speed 7 mph ()    
Max Wind Speed 17 mph    
Max Gust Speed 27 mph    
Visibility 10.0 miles    
Events Snow    
T = Trace of Precipitation, MM = Missing Value Source: Averaged Metar Reports

Daily Weather History Graph

Daily Weather History Graph

Search for Another Location

Airport or City:

Astronomy

Oct. 13, 2019 Rise Set
Actual Time 7:53 AM CDT 7:03 PM CDT
Civil Twilight 7:24 AM CDT 7:31 PM CDT
Nautical Twilight 6:51 AM CDT 8:04 PM CDT
Astronomical Twilight 6:18 AM CDT 8:37 PM CDT
Moon 7:27 PM CDT (10/13) 7:26 AM CDT (10/13)
Length of Visible Light 12h 07m
Length of Day
11h 10m
Full, 100% of the Moon is Illuminated
Oct 13
Full
Oct 13
Full
Oct 21
Last Quarter
Oct 27
New
Nov 4
First Quarter

Hourly Weather History & Observations

Time (CDT) Temp. Windchill Dew Point Humidity Pressure Visibility Wind Dir Wind Speed Gust Speed Precip Events Conditions
12:52 AM 28.0 °F 21.7 °F 21.0 °F 75% 29.96 in 10.0 mi WNW 5.8 mph - N/A   Clear
1:52 AM 28.0 °F 20.0 °F 21.0 °F 75% 29.96 in 10.0 mi WNW 8.1 mph - N/A   Clear
2:52 AM 24.1 °F 17.0 °F 19.0 °F 81% 29.97 in 10.0 mi West 5.8 mph - N/A   Clear
3:52 AM 23.0 °F 15.8 °F 17.1 °F 78% 29.96 in 10.0 mi WNW 5.8 mph - N/A   Clear
4:52 AM 26.1 °F 17.6 °F 19.0 °F 75% 29.95 in 10.0 mi WNW 8.1 mph - N/A   Clear
5:52 AM 19.9 °F 11.1 °F 15.1 °F 81% 29.97 in 10.0 mi West 6.9 mph - N/A   Clear
6:52 AM 19.9 °F 10.1 °F 15.1 °F 81% 29.99 in 10.0 mi West 8.1 mph - 0.00 in Snow Light Snow
7:52 AM 19.0 °F 11.1 °F 14.0 °F 81% 30.02 in 10.0 mi WNW 5.8 mph - 0.00 in   Clear
8:52 AM 27.0 °F 19.5 °F 21.0 °F 78% 30.04 in 10.0 mi West 6.9 mph - N/A   Clear
9:52 AM 37.0 °F 28.9 °F 26.1 °F 65% 30.03 in 10.0 mi WNW 12.7 mph - N/A   Clear
10:52 AM 43.0 °F 36.4 °F 25.0 °F 49% 30.04 in 10.0 mi WNW 12.7 mph - N/A   Clear
11:52 AM 46.9 °F - 25.0 °F 42% 30.03 in 10.0 mi WNW 12.7 mph 19.6 mph N/A   Clear
12:52 PM 52.0 °F - 19.9 °F 28% 30.02 in 10.0 mi WNW 13.8 mph 23.0 mph N/A   Clear
1:52 PM 54.0 °F - 18.0 °F 24% 30.00 in 10.0 mi NW 12.7 mph - N/A   Clear
2:52 PM 55.9 °F - 17.1 °F 22% 29.99 in 10.0 mi WNW 15.0 mph 21.9 mph N/A   Clear
3:52 PM 57.0 °F - 17.1 °F 21% 29.98 in 10.0 mi NW 11.5 mph 19.6 mph N/A   Clear
4:52 PM 57.9 °F - 14.0 °F 18% 29.97 in 10.0 mi NW 12.7 mph - N/A   Clear
5:52 PM 57.0 °F - 15.1 °F 19% 29.98 in 10.0 mi NW 9.2 mph - N/A   Clear
6:52 PM 53.1 °F - 16.0 °F 23% 30.00 in 10.0 mi NNW 3.5 mph - N/A   Clear
7:52 PM 39.9 °F 37.8 °F 19.9 °F 45% 30.03 in 10.0 mi NW 3.5 mph - N/A   Clear
8:52 PM 39.0 °F 34.8 °F 21.9 °F 50% 30.02 in 10.0 mi NE 5.8 mph - N/A   Clear
9:52 PM 34.0 °F 31.0 °F 23.0 °F 64% 30.01 in 10.0 mi NNE 3.5 mph - N/A   Clear
10:52 PM 28.9 °F 25.2 °F 21.0 °F 72% 30.02 in 10.0 mi SW 3.5 mph - N/A   Clear
11:52 PM 28.0 °F 24.2 °F 21.0 °F 75% 30.01 in 10.0 mi SW 3.5 mph - N/A   Clear